GFSNGP_925_temp_165.txt.gz
Temp
13 15 17 15 14 16 13 14 13 15 16 16 16 16 18 20 20 20 18 17 16 14 12 9 6 3 2 1 2 2 1 1 -1 -1 -2 -1 -1 0 1 1 0 0 0 -0
10 15 15 16 17 18 18 18 17 16 17 19 20 17 17 19 20 19 18 16 16 14 12 10 7 4 3 0 -1 1 -0 -1 -2 -2 -2 -1 -0 0 -0 -1 -2 -1 -1 -2
10 14 11 12 15 18 19 19 19 17 19 18 18 19 19 20 21 21 19 17 15 13 12 10 7 4 4 2 0 -1 -2 -2 -2 -3 -3 -2 -1 -0 -3 -3 -4 -4 -4 -5
10 12 11 16 18 18 18 19 20 20 20 21 19 20 20 20 20 20 20 18 15 14 12 10 8 6 5 3 2 1 -1 -3 -3 -3 -4 -3 -2 -3 -4 -5 -5 -5 -5 -5
9 11 13 16 18 18 16 16 20 20 20 21 21 21 20 20 20 19 19 17 15 14 12 10 9 8 7 4 3 2 1 -1 -3 -4 -4 -4 -5 -5 -5 -5 -5 -5 -5 -5
10 10 11 16 18 18 18 15 19 19 19 20 20 18 20 21 20 18 16 16 15 14 12 10 9 7 6 5 4 3 2 0 -2 -3 -4 -5 -5 -5 -5 -5 -5 -5 -6 -6
11 10 12 17 18 19 14 16 19 19 19 18 18 19 18 16 17 16 6 6 13 12 10 7 7 6 3 3 3 3 2 1 -1 -2 -2 -4 -4 -3 -4 -4 -4 -4 -6 -6
11 10 11 18 17 16 17 18 19 19 19 15 14 9 8 12 13 12 8 4 4 3 3 4 5 4 2 2 2 2 1 0 -1 -1 -2 -3 -3 -3 -2 -2 -3 -3 -3 -4
12 13 16 17 17 17 16 17 18 18 18 18 12 9 11 13 13 12 7 5 2 1 1 1 2 1 1 -1 1 0 -0 -2 -3 -2 -3 -3 -4 -3 -2 -2 -2 -2 -2 -2
13 15 16 17 17 17 18 18 18 18 18 18 17 15 12 13 14 11 9 6 2 0 -0 -1 -1 -0 -1 -2 -1 -2 -3 -3 -4 -4 -4 -4 -4 -4 -2 -2 -2 -2 -2 -2
11 14 15 16 17 16 15 15 16 17 17 17 17 17 13 13 12 12 10 6 4 3 2 -0 -1 -2 -3 -3 -3 -2 -3 -4 -3 -3 -4 -4 -3 -3 -2 -3 -3 -2 -3 -3
11 15 15 16 15 15 15 15 15 16 16 17 16 16 15 14 13 11 9 7 7 5 3 1 0 -2 -2 -2 -1 -1 -2 -2 -2 -2 -2 -3 -3 -3 -4 -4 -5 -4 -4 -4
13 15 15 15 15 16 15 14 14 13 14 15 15 16 15 14 13 10 10 9 9 7 5 3 2 1 -0 -0 0 0 -0 0 -1 -1 -1 -2 -2 -3 -4 -6 -5 -5 -5 -5
14 15 14 14 14 15 15 15 12 10 11 13 14 15 15 13 11 11 10 9 8 7 5 4 3 2 1 1 1 1 2 1 0 0 -0 -0 -1 -3 -3 -5 -5 -6 -7 -7
14 15 14 15 14 14 15 15 14 13 12 12 11 11 10 9 9 10 9 9 8 7 6 6 5 3 2 1 2 1 2 1 0 0 -0 -1 -1 -2 -3 -4 -4 -6 -7 -8
14 14 14 13 14 14 14 14 14 15 14 13 13 12 11 10 10 9 8 7 7 7 6 5 4 3 2 2 2 1 1 0 -1 -1 -2 -2 -2 -2 -4 -4 -4 -5 -6 -6
12 12 13 13 13 13 14 14 15 15 15 14 13 12 11 10 9 8 7 6 5 5 4 3 2 2 2 1 1 0 -0 -2 -2 -2 -3 -3 -3 -3 -4 -4 -4 -4 -5 -6
11 11 12 12 12 12 13 12 12 12 12 11 7 5 3 3 6 4 2 0 -0 -0 -0 -0 -0 -0 0 -0 0 -1 -2 -2 -2 -3 -3 -3 -3 -3 -4 -4 -3 -4 -4 -6
10 10 10 10 10 11 11 10 6 2 2 3 2 2 2 2 1 -0 -1 -1 -1 -2 -3 -2 -2 -2 -2 -1 -0 -1 -2 -3 -2 -3 -3 -4 -4 -4 -4 -4 -4 -4 -5 -6
7 7 6 4 2 3 2 -0 1 0 0 1 1 1 1 0 -0 -1 -1 0 0 1 -4 -4 -3 -2 -3 -2 -1 -1 -3 -3 -3 -3 -4 -4 -4 -4 -4 -4 -4 -5 -6 -6
2 0 0 0 -0 -1 -1 -1 -0 -1 -0 0 1 1 -0 -1 -1 -1 -0 1 -3 -3 -3 -4 -2 -2 -3 -3 -2 -3 -4 -4 -3 -4 -4 -4 -4 -4 -4 -4 -5 -5 -6 -6
1 1 0 0 -0 -1 -2 -2 -1 -1 -1 -1 -2 -1 -1 -1 -2 -2 -1 -1 -3 -4 -4 -3 -2 -2 -3 -3 -1 -3 -4 -4 -4 -4 -4 -4 -4 -5 -5 -5 -5 -5 -6 -6
0 0 -0 -0 -1 -1 -2 -2 -2 -2 -2 -2 -1 -1 -1 -1 -1 -0 -0 -3 -4 -3 -2 -2 -2 -2 -3 -2 -4 -4 -4 -4 -4 -4 -4 -5 -5 -5 -5 -5 -5 -6 -6 -6
-0 -0 -1 -1 -1 0 -1 -2 -2 -3 -3 -3 -3 -2 -2 -2 -2 -2 -2 -3 -3 -3 -3 -4 -4 -4 -4 -4 -4 -4 -4 -5 -5 -5 -5 -5 -5 -5 -5 -6 -6 -6 -7 -7
-0 -1 -1 -0 1 0 -0 -1 -1 -1 -1 -1 -1 -2 -1 -1 -2 -3 -4 -4 -4 -4 -5 -5 -5 -5 -4 -4 -5 -5 -5 -5 -5 -5 -5 -5 -5 -6 -6 -6 -6 -7 -7 -8
2 2 2 1 1 1 1 1 0 -0 -1 -2 -3 -4 -4 -4 -4 -4 -4 -4 -5 -5 -5 -6 -5 -5 -5 -5 -5 -5 -5 -6 -6 -6 -6 -6 -6 -6 -7 -7 -7 -8 -8 -9
2 1 2 1 1 0 -0 -1 -1 -1 -2 -2 -3 -4 -4 -5 -5 -5 -5 -5 -5 -5 -5 -6 -5 -5 -5 -5 -6 -6 -6 -6 -6 -6 -6 -7 -7 -7 -7 -8 -8 -9 -9 -10

GFSNGP_925_temp_168.txt.gz
Temp
12 13 15 15 16 14 13 13 13 17 17 19 20 19 18 18 20 20 19 19 18 15 12 11 7 6 5 5 5 4 3 2 1 1 2 1 1 1 1 1 1 0 -1 -1
9 13 14 13 14 15 15 14 14 16 17 20 20 20 19 18 19 20 20 18 17 14 11 9 6 5 4 3 3 4 2 1 0 1 0 0 1 1 1 1 0 0 0 -1
10 13 13 11 14 16 15 18 18 16 18 21 20 20 19 19 19 20 20 18 17 15 11 9 6 5 3 2 2 1 -0 -1 -1 -1 -0 0 1 1 0 -1 -1 -1 -2 -4
10 11 9 14 17 16 14 13 16 21 21 21 21 20 20 20 20 19 20 18 16 15 12 9 6 5 3 2 1 -0 -2 -2 -2 -2 -1 -0 0 -0 -1 -2 -3 -3 -4 -5
10 11 12 13 15 16 16 14 18 19 20 19 17 19 20 20 19 18 18 17 15 15 13 10 7 6 4 2 1 0 -1 -2 -2 -2 -2 -1 -1 -2 -3 -4 -4 -4 -5 -5
10 10 10 14 17 19 18 13 18 19 19 19 19 16 17 16 16 18 12 13 13 13 12 10 7 6 5 3 3 2 0 -1 -3 -3 -3 -3 -3 -4 -4 -4 -4 -4 -5 -5
9 10 12 15 16 17 11 15 18 18 18 18 17 17 15 15 14 10 6 4 13 12 11 8 8 6 4 4 3 3 1 -1 -2 -3 -3 -3 -3 -4 -4 -4 -5 -5 -5 -6
9 9 10 16 15 14 15 16 17 17 17 15 15 9 9 12 13 11 8 4 5 4 5 7 7 6 3 3 4 3 1 -1 -3 -3 -3 -4 -3 -4 -3 -3 -4 -5 -5 -6
8 9 11 11 16 14 11 14 14 13 12 12 12 10 12 13 14 11 8 5 3 2 2 4 5 4 2 0 3 1 -0 -2 -2 -2 -3 -3 -3 -3 -2 -2 -3 -3 -4 -4
10 12 13 11 13 12 12 16 16 16 16 16 16 14 12 13 14 11 8 6 2 2 2 1 1 2 1 1 -0 -1 -2 -2 -2 -3 -3 -3 -3 -2 -2 -2 -2 -2 -2 -2
10 11 11 13 15 15 15 15 15 15 16 16 17 17 13 13 14 12 9 6 4 3 1 0 0 -0 0 -1 -1 -2 -2 -3 -3 -3 -3 -4 -3 -3 -2 -2 -2 -2 -2 -2
8 11 8 8 7 13 15 16 15 13 13 14 15 16 16 13 13 12 8 6 5 3 2 1 -1 -1 -2 -1 -1 -2 -2 -3 -3 -3 -3 -3 -3 -3 -2 -2 -2 -2 -2 -2
10 11 11 9 10 16 16 15 15 13 12 11 13 15 16 14 12 9 8 7 6 4 2 1 -0 -1 -1 -1 -1 -2 -2 -2 -3 -3 -3 -3 -2 -3 -4 -5 -3 -4 -4 -4
11 10 7 10 14 15 15 16 13 11 10 9 9 13 14 13 10 10 9 9 7 5 3 2 0 -1 -1 -1 -1 -1 -1 -1 -2 -2 -2 -2 -2 -3 -4 -5 -6 -6 -6 -6
12 13 11 15 15 15 15 15 15 12 10 10 10 8 9 9 9 8 9 8 7 5 5 3 2 0 -0 -0 0 0 0 -0 -1 -1 -1 -1 -2 -3 -4 -5 -5 -6 -7 -7
12 13 14 14 14 14 14 15 14 14 11 12 10 9 9 8 7 7 7 6 4 4 4 3 2 1 1 1 1 1 1 1 -0 0 -0 -1 -2 -2 -3 -4 -4 -6 -7 -7
12 13 13 13 13 13 14 14 14 13 12 11 11 11 11 8 7 7 6 6 7 6 6 5 3 2 1 1 2 1 1 0 -0 -1 -1 -1 -2 -2 -4 -4 -4 -6 -6 -7
12 12 12 12 11 12 12 11 8 6 4 3 3 3 2 3 4 2 1 1 1 1 3 3 3 2 2 2 1 0 -1 -1 -2 -2 -2 -2 -2 -3 -4 -4 -4 -5 -5 -6
10 10 9 8 6 8 4 3 2 1 1 1 2 2 2 1 1 0 -0 0 -1 -1 -2 1 2 2 2 1 0 -1 -2 -2 -2 -3 -3 -3 -3 -3 -4 -4 -4 -4 -5 -7
7 5 4 1 0 1 0 -0 0 0 1 2 1 1 1 0 -0 -1 -1 -0 0 -0 -2 -1 -0 -0 0 -0 -1 -2 -2 -2 -2 -3 -3 -3 -4 -4 -4 -4 -4 -5 -5 -7
1 1 0 0 -0 -1 -1 -1 -1 -0 -0 0 0 0 -0 -1 -1 -1 -1 -1 -3 -3 -2 -2 -2 -2 -1 -0 -2 -2 -3 -3 -3 -3 -3 -4 -4 -4 -4 -4 -4 -4 -5 -6
1 0 0 0 -0 -1 -1 -1 -1 -1 -1 -1 -1 -1 -1 -1 -1 -1 -0 -2 -3 -3 -3 -2 -2 -2 -2 -2 -3 -3 -3 -3 -3 -4 -4 -4 -4 -4 -4 -4 -5 -5 -5 -6
0 0 -0 -0 -0 -1 -2 -2 -2 -2 -2 -1 -1 -1 -1 -1 -1 -1 -2 -3 -3 -3 -3 -3 -3 -3 -2 -2 -3 -3 -4 -4 -4 -4 -4 -4 -4 -4 -4 -5 -5 -5 -6 -6
0 -0 -0 -0 0 0 -0 -1 -2 -2 -2 -2 -2 -1 -1 -2 -2 -2 -3 -3 -3 -3 -3 -3 -2 -3 -3 -3 -3 -4 -4 -4 -4 -4 -4 -4 -4 -4 -5 -5 -5 -5 -6 -6
-0 -0 -0 1 1 0 -0 -0 -1 -1 -1 -2 -3 -3 -3 -3 -3 -3 -3 -4 -3 -4 -4 -3 -4 -4 -4 -4 -4 -4 -4 -4 -4 -4 -5 -5 -5 -5 -5 -5 -6 -6 -6 -7
2 2 2 2 2 1 1 1 0 -1 -2 -3 -4 -4 -4 -4 -4 -4 -4 -4 -5 -5 -5 -5 -4 -4 -4 -4 -4 -4 -5 -5 -5 -5 -5 -5 -5 -6 -6 -6 -6 -7 -7 -8
2 2 2 1 0 -0 -0 -1 -1 -2 -2 -3 -4 -4 -4 -4 -4 -4 -5 -5 -5 -5 -5 -4 -4 -4 -4 -4 -5 -5 -5 -5 -5 -6 -6 -6 -6 -6 -7 -7 -7 -8 -8 -9

GFSNGP_925_temp_174.txt.gz
Temp
8 9 11 11 11 12 9 10 10 10 10 12 14 15 15 16 16 15 15 13 11 9 8 8 6 5 5 5 5 5 5 4 4 4 5 4 3 3 1 1 1 0 0 -0
7 9 11 9 11 11 12 12 12 12 13 15 15 15 15 16 16 15 15 13 12 9 9 8 6 5 5 4 3 4 4 3 3 3 3 2 2 -0 0 -0 0 -1 -1 -1
7 9 8 8 10 11 12 13 13 12 14 15 14 14 14 15 16 16 15 13 12 10 9 8 6 6 4 3 3 3 2 2 2 3 2 1 -0 0 -1 0 -1 -1 -1 -1
6 8 7 11 12 13 13 13 14 14 15 14 14 13 13 13 15 16 15 13 12 11 10 8 6 5 4 2 2 2 1 1 2 1 0 0 -1 -1 -0 -1 -2 -2 -2 -2
5 8 9 10 12 12 12 12 11 11 13 13 12 12 12 12 12 13 13 13 12 11 10 7 5 4 3 2 2 2 1 0 1 1 0 -0 -1 -0 -1 -2 -2 -2 -2 -3
4 6 7 10 9 10 11 9 9 10 10 11 12 10 10 11 11 10 6 6 9 8 7 5 4 3 2 2 2 2 1 0 -0 0 0 -1 -1 -2 -3 -2 -2 -2 -3 -3
6 6 8 8 9 10 8 7 7 9 10 10 10 9 10 9 10 8 5 3 7 6 6 4 3 3 2 2 2 1 0 -0 -1 -1 -1 -2 -3 -3 -3 -2 -2 -3 -4 -4
6 7 7 7 9 8 7 7 6 6 9 9 8 7 8 8 8 9 6 3 3 3 3 3 2 2 1 1 1 -0 0 -1 -1 -2 -2 -2 -2 -3 -3 -3 -4 -5 -5 -6
6 6 7 8 9 8 8 8 8 7 8 9 9 8 9 10 9 7 4 4 2 2 2 2 2 2 1 1 -1 -1 -2 -2 -2 -2 -3 -3 -3 -4 -4 -4 -5 -5 -6 -6
6 7 8 9 9 9 9 9 8 8 8 9 9 9 7 8 8 5 3 3 2 2 2 1 1 1 1 -0 -1 -2 -2 -3 -3 -3 -3 -3 -3 -3 -4 -5 -5 -5 -5 -6
6 6 7 9 9 8 8 9 9 9 8 9 8 8 8 8 7 4 2 3 3 2 2 1 0 0 0 -1 -1 -2 -3 -3 -4 -4 -4 -4 -4 -4 -4 -5 -5 -5 -6 -6
3 6 6 7 8 8 8 9 8 8 9 8 7 7 8 6 5 4 2 3 2 1 1 0 -0 -1 -1 -1 -1 -2 -3 -3 -4 -4 -4 -4 -4 -4 -4 -4 -4 -4 -3 -5
5 7 6 7 8 8 8 8 8 9 8 8 7 7 7 6 5 4 2 2 2 1 -0 -0 -1 -1 -1 -1 -2 -2 -2 -3 -4 -4 -4 -4 -4 -4 -4 -4 -3 -3 -3 -3
6 6 6 7 7 9 10 8 8 8 7 7 7 7 6 5 5 4 2 2 1 0 -1 -1 -1 -1 -1 -1 -1 -2 -3 -3 -3 -4 -4 -4 -4 -3 -4 -4 -4 -4 -3 -3
6 7 7 7 8 9 9 9 9 7 7 6 6 5 5 5 4 3 2 2 1 -0 -1 -1 -2 -2 -2 -2 -2 -2 -3 -3 -4 -4 -4 -4 -4 -4 -4 -4 -5 -6 -5 -4
7 7 7 7 8 8 7 7 7 5 5 7 6 5 6 5 4 3 2 1 1 -0 -0 -0 -1 -2 -1 -1 -2 -3 -3 -3 -4 -4 -4 -4 -5 -5 -5 -5 -6 -6 -6 -5
5 5 6 6 6 5 3 3 3 2 2 3 3 2 6 4 3 2 2 3 2 1 -0 -1 -1 -2 -1 -1 -2 -3 -3 -3 -3 -4 -4 -5 -5 -5 -5 -6 -6 -7 -6 -6
4 4 3 3 4 3 2 2 2 2 1 2 2 1 -1 -2 1 -0 1 2 2 1 1 1 0 -1 -1 -2 -2 -2 -3 -3 -4 -4 -4 -5 -5 -5 -5 -5 -6 -7 -7 -6
4 2 2 1 2 1 1 1 0 0 1 1 1 -0 -0 -1 -1 -1 -1 -0 0 -0 -0 1 1 -1 -1 -1 -1 -2 -2 -3 -3 -3 -4 -4 -4 -5 -5 -5 -6 -6 -6 -7
2 2 1 0 -1 -0 -1 -1 -1 -0 -0 1 0 -0 -1 -1 -1 -2 -1 -2 -1 0 0 1 0 -1 -2 -1 -1 -1 -1 -2 -2 -3 -3 -4 -4 -5 -5 -5 -5 -6 -6 -7
0 -0 -1 -1 -1 -1 -1 -1 -1 -1 -1 -0 -0 -1 -1 -1 -1 -1 -2 -2 -3 -2 -1 -1 -0 -1 -1 -1 0 -0 -1 -2 -2 -3 -3 -4 -4 -4 -4 -5 -5 -5 -6 -6
-0 -1 -1 -1 -2 -2 -2 -2 -1 -1 -1 -1 -1 -1 -2 -2 -2 -3 -3 -2 -3 -2 -1 -1 -1 -1 -1 -1 -1 -1 -1 -2 -2 -3 -3 -3 -3 -4 -4 -4 -5 -5 -5 -6
-1 -1 -1 -2 -2 -3 -2 -2 -2 -2 -2 -2 -3 -3 -2 -2 -3 -3 -3 -3 -3 -2 -1 -1 -1 -1 -1 -2 -2 -2 -2 -2 -3 -3 -3 -3 -4 -4 -4 -4 -5 -5 -5 -6
-1 -1 -1 -1 -1 -1 -2 -2 -2 -3 -3 -3 -3 -3 -3 -4 -4 -4 -4 -3 -3 -2 -2 -2 -2 -2 -2 -2 -2 -3 -3 -3 -3 -3 -4 -4 -4 -4 -4 -4 -5 -5 -5 -5
-1 -1 -0 -1 -1 -2 -2 -2 -3 -3 -3 -4 -4 -4 -4 -3 -4 -3 -3 -3 -3 -3 -3 -3 -3 -2 -2 -3 -3 -3 -3 -3 -4 -4 -4 -4 -4 -4 -5 -5 -5 -5 -5 -5
-1 -1 -0 0 0 -0 -1 -2 -3 -3 -4 -4 -4 -4 -4 -4 -4 -4 -4 -4 -4 -4 -4 -3 -3 -3 -3 -4 -4 -4 -4 -4 -4 -4 -4 -5 -5 -5 -5 -5 -5 -5 -6 -6
0 0 0 -0 -1 -1 -1 -2 -3 -4 -4 -4 -4 -4 -4 -4 -4 -4 -4 -4 -4 -4 -4 -4 -4 -4 -4 -4 -4 -4 -4 -5 -5 -5 -5 -5 -5 -5 -6 -6 -6 -6 -7 -7

GFSNGP_925_temp_177.txt.gz
Temp
9 9 9 8 9 10 9 10 9 11 11 12 13 12 11 12 14 15 15 12 10 8 7 6 6 5 6 5 4 3 3 3 3 2 3 4 4 4 3 3 3 1 1 1
4 9 10 9 9 9 10 11 11 11 10 13 13 14 13 13 13 13 14 13 11 9 8 7 6 5 5 3 3 4 3 2 2 2 2 3 3 3 3 2 2 0 1 -1
5 8 9 6 9 10 11 12 11 10 12 11 13 14 14 13 13 13 14 15 12 9 9 8 6 5 5 3 3 3 2 1 2 2 1 1 2 1 1 1 -1 -0 1 -2
4 6 3 9 11 11 11 11 10 10 10 9 10 11 12 12 11 11 11 14 12 11 9 8 6 5 4 2 3 2 1 1 1 1 1 0 0 -0 -1 -1 -1 -1 -2 -2
2 5 7 9 9 8 8 9 8 7 9 10 9 10 11 11 10 10 8 9 10 11 10 7 5 5 3 3 2 2 1 0 1 1 0 -0 -1 -1 -2 -2 -2 -2 -3 -3
3 5 6 8 7 8 9 8 8 8 7 8 10 9 8 10 9 10 7 4 8 9 8 5 4 3 3 2 2 2 1 1 1 1 1 -1 -1 -2 -2 -3 -2 -3 -3 -3
3 5 6 5 5 7 8 7 7 8 7 7 8 9 9 9 9 9 7 3 5 6 4 4 3 3 2 2 2 2 1 1 0 -0 -1 -0 -1 -2 -2 -3 -3 -3 -3 -4
1 4 5 6 6 5 6 7 7 7 8 7 7 7 7 7 8 9 8 5 3 3 2 2 3 2 2 2 2 2 1 -0 -0 -1 -1 -1 -1 -3 -2 -3 -3 -5 -5 -5
4 5 8 5 5 7 8 8 8 8 8 4 5 6 7 8 8 9 7 4 3 1 1 1 2 2 1 1 1 1 -0 -1 -1 -1 -1 -2 -2 -3 -4 -3 -5 -6 -6 -7
5 6 7 8 8 8 8 7 8 8 8 8 7 7 7 8 8 7 4 4 2 2 1 0 1 1 1 0 0 -1 -1 -1 -2 -2 -2 -3 -3 -3 -4 -4 -5 -5 -6 -7
4 6 6 6 7 8 7 7 7 9 8 8 8 7 7 7 7 4 3 3 3 2 1 0 0 1 0 -1 -1 -2 -2 -2 -3 -3 -3 -3 -3 -3 -3 -4 -4 -5 -5 -6
4 6 5 5 6 6 6 7 8 7 7 7 7 6 5 4 4 3 2 3 3 2 1 0 -0 -1 -1 -1 -1 -2 -3 -3 -3 -3 -3 -3 -3 -4 -4 -3 -3 -4 -5 -3
5 6 5 6 6 7 7 7 8 7 7 6 7 6 6 5 3 2 1 2 2 1 0 -0 -1 -1 -1 -1 -1 -2 -3 -3 -3 -3 -3 -4 -4 -4 -5 -4 -4 -5 -4 -3
5 5 4 6 6 7 7 8 7 7 7 6 6 6 5 4 3 2 1 1 1 0 -0 -0 -1 -1 -1 -2 -2 -2 -3 -3 -3 -3 -3 -4 -4 -4 -4 -4 -5 -5 -5 -4
5 5 6 6 6 6 7 8 8 7 6 6 5 5 5 4 3 1 1 0 -0 -1 -1 -1 -1 -2 -1 -2 -2 -2 -3 -3 -3 -3 -4 -4 -4 -4 -4 -4 -4 -4 -5 -5
5 4 5 5 6 6 5 4 4 3 4 4 4 4 5 4 3 2 1 0 -1 -1 -2 -1 -2 -2 -1 -1 -2 -3 -3 -3 -3 -4 -4 -4 -5 -5 -5 -5 -5 -5 -5 -5
4 5 5 4 6 4 3 3 3 2 2 2 3 2 2 2 2 1 2 1 1 0 -0 -1 -1 -1 -1 -2 -3 -3 -4 -4 -4 -4 -5 -5 -6 -6 -5 -6 -6 -6 -5 -4
4 5 3 3 4 3 2 2 2 1 1 1 1 0 -2 -4 -0 -1 -0 1 1 -0 0 0 -0 -1 -2 -2 -2 -3 -4 -4 -4 -5 -5 -5 -5 -5 -5 -5 -6 -6 -5 -5
2 2 2 2 2 1 1 0 -0 -0 -0 0 0 -0 -1 -1 -1 -1 -1 -0 -0 -1 -1 -0 -1 -2 -2 -2 -2 -3 -3 -4 -4 -5 -5 -5 -5 -5 -5 -5 -5 -5 -5 -6
1 1 0 -0 -1 -0 -1 -1 -1 -1 -1 0 0 -0 -1 -1 -1 -1 -1 -3 -2 -1 -0 -1 -2 -2 -2 -2 -2 -2 -3 -3 -4 -4 -4 -5 -5 -5 -5 -5 -5 -5 -6 -6
-0 -1 -1 -1 -1 -2 -2 -1 -1 -1 -1 -1 -1 -1 -1 -2 -2 -2 -1 -2 -3 -2 -1 -1 -1 -2 -2 -2 -2 -2 -2 -3 -3 -4 -4 -5 -4 -5 -5 -5 -5 -5 -6 -6
-0 -1 -2 -2 -2 -2 -2 -2 -2 -2 -2 -2 -2 -2 -2 -3 -3 -3 -3 -3 -3 -2 -2 -2 -2 -2 -2 -2 -2 -2 -2 -3 -3 -3 -4 -4 -4 -4 -5 -5 -5 -5 -6 -6
-1 -1 -1 -2 -2 -3 -2 -2 -3 -3 -3 -3 -3 -3 -3 -3 -3 -4 -3 -3 -3 -2 -2 -2 -2 -2 -2 -2 -2 -2 -3 -3 -3 -3 -3 -3 -4 -4 -4 -5 -5 -5 -5 -5
-1 -1 -1 -1 -1 -1 -2 -3 -3 -3 -3 -3 -4 -4 -4 -4 -4 -4 -3 -3 -3 -2 -2 -2 -2 -2 -2 -2 -3 -3 -3 -3 -3 -3 -4 -4 -4 -4 -4 -4 -5 -5 -5 -5
-1 -1 -1 -1 -1 -2 -2 -2 -3 -3 -4 -4 -5 -4 -5 -4 -3 -4 -3 -3 -3 -3 -3 -2 -2 -2 -2 -3 -3 -3 -3 -3 -4 -4 -4 -4 -4 -4 -5 -5 -5 -5 -5 -5
-0 -1 -1 -0 -0 -1 -1 -2 -3 -3 -4 -4 -4 -4 -4 -4 -4 -4 -4 -3 -3 -3 -3 -3 -3 -3 -3 -3 -4 -4 -4 -4 -4 -4 -4 -5 -5 -5 -5 -5 -5 -5 -5 -5
-0 0 -0 -1 -1 -1 -1 -2 -3 -4 -4 -4 -5 -5 -4 -4 -4 -4 -4 -4 -4 -4 -4 -4 -4 -4 -4 -4 -4 -4 -4 -5 -5 -5 -5 -5 -5 -5 -6 -6 -6 -6 -6 -6